Weather History for Tekamah, NE

Change the Weather History Date:

Sunday, February 12, 2012

  Actual Average Record
Temperature  
Mean Temperature 10 °F -  
Max Temperature 28 °F 34 °F 69 °F (1951)
Min Temperature -8 °F 13 °F -16 °F (1981)
Degree Days  
Heating Degree Days 56    
Moisture  
Dew Point 3 °F    
Average Humidity 68    
Maximum Humidity 83    
Minimum Humidity 53    
Precipitation  
Precipitation 0.00 in - - ()
Sea Level Pressure  
Sea Level Pressure 30.41 in    
Wind  
Wind Speed 8 mph (SSE)    
Max Wind Speed 15 mph    
Max Gust Speed -    
Visibility 10 miles    
Events      
Averages and records for this station are not official NWS values.
T = Trace of Precipitation, MM = Missing Value Source: NWS Daily Summary

Daily Weather History Graph

Daily Weather History Graph

Search for Another Location

Airport:

Trip Planner

Search our weather history database for the weather conditions in past years. The results will help you decide how hot, cold, wet, or windy it might be!

Date:

Astronomy

Feb. 12, 2012 Rise Set
Actual Time 7:24 AM CST 5:53 PM CST
Civil Twilight 6:56 AM CST 6:22 PM CST
Nautical Twilight 6:23 AM CST 6:55 PM CST
Astronomical Twilight 5:51 AM CST 7:27 PM CST
Moon 11:59 PM CST (2/12) 9:37 AM CST (2/12)
Length of Visible Light 11h 26m
Length of Day
10h 28m
Waning Gibbous, 72% of the Moon is Illuminated
Feb 12
Waning Gibbous
Feb 14
Last Quarter
Feb 21
New
Feb 29
First Quarter
Mar 8
Full

Hourly Weather History & Observations

Time (CST) Temp. Windchill Dew Point Humidity Pressure Visibility Wind Dir Wind Speed Gust Speed Precip Events Conditions
12:54 AM -0.0 °F -11.6 °F -8.0 °F 69% 30.66 in 10.0 mi SW 5.8 mph - N/A   Clear
1:54 AM -2.9 °F -18.8 °F -9.9 °F 72% 30.67 in 10.0 mi SSW 9.2 mph - N/A   Clear
2:54 AM 3.0 °F - -7.1 °F 63% 30.65 in 10.0 mi Calm Calm - N/A   Clear
3:54 AM -2.0 °F -13.9 °F -9.0 °F 72% 30.64 in 10.0 mi SSE 5.8 mph - N/A   Clear
4:54 AM -5.1 °F -21.5 °F -11.9 °F 72% 30.63 in 10.0 mi SSW 9.2 mph - N/A   Clear
5:54 AM -6.0 °F -18.6 °F -11.0 °F 79% 30.61 in 10.0 mi SSW 5.8 mph - N/A   Clear
6:54 AM -8.0 °F -23.9 °F -13.0 °F 79% 30.58 in 10.0 mi South 8.1 mph - N/A   Clear
7:54 AM -7.1 °F -19.9 °F -11.9 °F 79% 30.57 in 9.0 mi South 5.8 mph - N/A   Clear
8:54 AM -4.0 °F -14.6 °F -8.0 °F 83% 30.56 in 10.0 mi SSW 4.6 mph - N/A   Clear
9:54 AM 1.9 °F -9.2 °F -4.0 °F 76% 30.54 in 10.0 mi South 5.8 mph - N/A   Clear
10:54 AM 8.1 °F -3.2 °F -0.9 °F 67% 30.53 in 10.0 mi South 6.9 mph - N/A   Clear
11:54 AM 15.1 °F 3.3 °F 3.9 °F 61% 30.48 in 10.0 mi South 9.2 mph - N/A   Clear
12:54 PM 18.0 °F 5.4 °F 7.0 °F 62% 30.43 in 10.0 mi South 11.5 mph - N/A   Clear
1:54 PM 21.9 °F 9.8 °F 7.0 °F 53% 30.38 in 10.0 mi South 12.7 mph - N/A   Clear
2:54 PM 23.0 °F 13.1 °F 10.9 °F 60% 30.34 in 10.0 mi SE 9.2 mph - N/A   Clear
3:54 PM 25.0 °F 14.2 °F 10.9 °F 55% 30.32 in 10.0 mi South 11.5 mph - N/A   Clear
4:54 PM 21.9 °F 11.7 °F 12.0 °F 66% 30.27 in 10.0 mi SE 9.2 mph - N/A   Clear
5:54 PM 21.0 °F 8.6 °F 10.9 °F 65% 30.24 in 10.0 mi ESE 12.7 mph - N/A   Overcast
6:54 PM 21.9 °F 10.4 °F 12.9 °F 68% 30.22 in 10.0 mi SE 11.5 mph - N/A   Overcast
7:54 PM 23.0 °F 13.1 °F 14.0 °F 68% 30.19 in 10.0 mi SE 9.2 mph - N/A   Overcast
8:54 PM 24.1 °F 15.2 °F 15.1 °F 69% 30.16 in 10.0 mi SE 8.1 mph - N/A   Overcast
9:54 PM 25.0 °F 15.5 °F 17.1 °F 72% 30.13 in 10.0 mi SE 9.2 mph - N/A   Overcast
10:54 PM 27.0 °F 17.3 °F 18.0 °F 69% 30.09 in 10.0 mi South 10.4 mph - N/A   Overcast
11:54 PM 28.0 °F 16.5 °F 15.1 °F 58% 30.06 in 10.0 mi South 15.0 mph - N/A   Overcast